When you browse on this site, cookies collect data to enhance your experience and personalize the content and advertising you see.
Visit our Privacy Policy to learn more. By continuing to use the site, you agree to this use of cookies and data.
  • In Austria
  • List of Countries
  • For 7 days
  • Water Temperature
  • Satellite Maps
  • Weather Map
  • News
  • Weather Widgets
  • user-avatar
    Login

    Hourly Weather Ghent

    Today, 16 January, Wednesday

    Time Temperature Precipitation Wind Pressure Humidity
    00:00 +5°C° 0 mm 6 mps 760 mmHg 83%
    01:00 +5°C° 0 mm 6 mps 760 mmHg 82%
    02:00 +5°C° 0 mm 6 mps 759 mmHg 80%
    03:00 +4°C° 0 mm 6 mps 759 mmHg 79%
    04:00 +4°C° 0 mm 6 mps 758 mmHg 80%
    05:00 +3°C° 0 mm 6 mps 758 mmHg 81%
    06:00 +2°C° 0 mm 6 mps 758 mmHg 82%
    07:00 +2°C° 0 mm 6 mps 757 mmHg 82%
    08:00 +2°C° 0 mm 6 mps 757 mmHg 81%
    09:00 +2°C° 0 mm 6 mps 757 mmHg 81%
    10:00 +3°C° 0 mm 6 mps 756 mmHg 80%
    11:00 +4°C° 0 mm 6 mps 755 mmHg 78%
    12:00 +4°C° 0 mm 6 mps 755 mmHg 76%
    13:00 +4°C° 0.1 mm 6 mps 754 mmHg 77%
    14:00 +4°C° 0.1 mm 6 mps 753 mmHg 77%
    15:00 +5°C° 0.1 mm 7 mps 752 mmHg 77%
    16:00 +4°C° 0.3 mm 7 mps 752 mmHg 78%
    17:00 +4°C° 0.3 mm 7 mps 751 mmHg 79%
    18:00 +4°C° 0.3 mm 8 mps 751 mmHg 80%
    19:00 +4°C° 0.5 mm 7 mps 751 mmHg 82%
    20:00 +4°C° 0.5 mm 7 mps 751 mmHg 84%
    21:00 +5°C° 0.5 mm 7 mps 751 mmHg 86%
    22:00 +4°C° 0.1 mm 6 mps 751 mmHg 83%
    23:00 +5°C° 0.1 mm 5 mps 752 mmHg 81%

    Tomorrow, 17 January, Thursday

    Time Temperature Precipitation Wind Pressure Humidity
    00:00 +4°C° 0.1 mm 4 mps 752 mmHg 79%
    01:00 +3°C° 0 mm 5 mps 752 mmHg 81%
    02:00 +3°C° 0 mm 5 mps 752 mmHg 83%
    03:00 +2°C° 0 mm 5 mps 752 mmHg 85%
    04:00 +2°C° 0.2 mm 5 mps 752 mmHg 85%
    05:00 +3°C° 0.2 mm 5 mps 752 mmHg 85%
    06:00 +3°C° 0.2 mm 5 mps 752 mmHg 86%
    07:00 +3°C° 0.4 mm 5 mps 752 mmHg 84%
    08:00 +3°C° 0.4 mm 5 mps 753 mmHg 82%
    09:00 +3°C° 0.4 mm 5 mps 754 mmHg 81%
    10:00 +3°C° 0.4 mm 6 mps 755 mmHg 75%
    11:00 +3°C° 0.4 mm 6 mps 755 mmHg 69%
    12:00 +3°C° 0.4 mm 6 mps 756 mmHg 63%
    13:00 +3°C° 0 mm 6 mps 757 mmHg 63%
    14:00 +3°C° 0 mm 6 mps 758 mmHg 64%
    15:00 +3°C° 0 mm 6 mps 758 mmHg 64%
    16:00 +2°C° 0 mm 6 mps 759 mmHg 66%
    17:00 +1°C° 0 mm 5 mps 760 mmHg 69%
    18:00 +1°C° 0 mm 4 mps 761 mmHg 71%
    19:00 +1°C° 0 mm 4 mps 761 mmHg 72%
    20:00 +1°C° 0 mm 4 mps 762 mmHg 74%
    21:00 +1°C° 0 mm 3 mps 762 mmHg 75%
    22:00 +1°C° 0 mm 3 mps 763 mmHg 75%
    23:00 +1°C° 0 mm 3 mps 763 mmHg 76%

    Day after tomorrow, 18 January, Friday

    Time Temperature Precipitation Wind Pressure Humidity
    00:00 +1°C° 0 mm 3 mps 763 mmHg 77%
    01:00 +1°C° 0 mm 3 mps 763 mmHg 78%
    02:00 +1°C° 0 mm 3 mps 764 mmHg 79%
    03:00 +1°C° 0 mm 2 mps 764 mmHg 80%
    04:00 +1°C° 0 mm 2 mps 764 mmHg 81%
    05:00 +1°C° 0 mm 2 mps 763 mmHg 82%
    06:00 +1°C° 0 mm 2 mps 763 mmHg 83%
    07:00 +1°C° 0 mm 2 mps 763 mmHg 81%
    08:00 +1°C° 0 mm 2 mps 764 mmHg 80%
    09:00 +1°C° 0 mm 2 mps 764 mmHg 79%
    10:00 +1°C° 0 mm 3 mps 764 mmHg 73%
    11:00 +2°C° 0 mm 3 mps 763 mmHg 68%
    12:00 +3°C° 0 mm 3 mps 763 mmHg 62%
    13:00 +3°C° 0 mm 3 mps 763 mmHg 63%
    14:00 +3°C° 0 mm 3 mps 762 mmHg 64%
    15:00 +4°C° 0 mm 2 mps 762 mmHg 65%
    16:00 +2°C° 0 mm 3 mps 762 mmHg 69%
    17:00 +1°C° 0 mm 3 mps 762 mmHg 73%
    18:00 0°C° 0 mm 3 mps 762 mmHg 77%
    19:00 0°C° 0 mm 3 mps 761 mmHg 77%
    20:00 -1°C° 0 mm 4 mps 761 mmHg 78%
    21:00 -1°C° 0 mm 4 mps 761 mmHg 78%
    22:00 -1°C° 0 mm 4 mps 760 mmHg 78%
    23:00 -1°C° 0 mm 4 mps 760 mmHg 78%

    19 January, Saturday

    Time Temperature Precipitation Wind Pressure Humidity
    00:00 -2°C° 0 mm 4 mps 760 mmHg 77%
    01:00 -2°C° 0 mm 4 mps 759 mmHg 77%
    02:00 -2°C° 0 mm 5 mps 759 mmHg 77%
    03:00 -2°C° 0 mm 5 mps 758 mmHg 77%
    04:00 -1°C° 0 mm 5 mps 758 mmHg 78%
    05:00 -1°C° 0 mm 5 mps 758 mmHg 79%
    06:00 -1°C° 0 mm 5 mps 757 mmHg 80%
    07:00 -1°C° 0.1 mm 5 mps 757 mmHg 80%
    08:00 0°C° 0.1 mm 5 mps 757 mmHg 79%
    09:00 0°C° 0.1 mm 5 mps 757 mmHg 79%
    10:00 +1°C° 0.1 mm 5 mps 757 mmHg 78%
    11:00 +2°C° 0.1 mm 5 mps 757 mmHg 77%
    12:00 +2°C° 0.1 mm 5 mps 757 mmHg 76%
    13:00 +3°C° 0.1 mm 4 mps 757 mmHg 78%
    14:00 +3°C° 0.1 mm 4 mps 756 mmHg 79%
    15:00 +3°C° 0.1 mm 3 mps 756 mmHg 81%
    16:00 +3°C° 0 mm 3 mps 756 mmHg 82%
    17:00 +2°C° 0 mm 3 mps 757 mmHg 83%
    18:00 +2°C° 0 mm 3 mps 757 mmHg 85%
    19:00 +2°C° 0 mm 3 mps 757 mmHg 85%
    20:00 +2°C° 0 mm 3 mps 757 mmHg 85%
    21:00 +2°C° 0 mm 3 mps 758 mmHg 85%
    22:00 +1°C° 0 mm 3 mps 758 mmHg 86%
    23:00 +1°C° 0 mm 3 mps 758 mmHg 88%

    20 January, Sunday

    Time Temperature Precipitation Wind Pressure Humidity
    00:00 0°C° 0 mm 3 mps 758 mmHg 90%
    01:00 0°C° 0 mm 3 mps 759 mmHg 90%
    02:00 0°C° 0 mm 3 mps 759 mmHg 91%
    03:00 -1°C° 0 mm 3 mps 759 mmHg 91%
    04:00 -1°C° 0 mm 3 mps 759 mmHg 91%
    05:00 -1°C° 0 mm 3 mps 760 mmHg 91%
    06:00 -1°C° 0 mm 3 mps 760 mmHg 90%
    07:00 -1°C° 0 mm 3 mps 761 mmHg 88%
    08:00 -1°C° 0 mm 3 mps 761 mmHg 86%
    09:00 0°C° 0 mm 3 mps 762 mmHg 83%
    10:00 +1°C° 0 mm 3 mps 762 mmHg 80%
    11:00 +2°C° 0 mm 3 mps 762 mmHg 77%
    12:00 +3°C° 0 mm 3 mps 763 mmHg 73%
    13:00 +4°C° 0 mm 2 mps 763 mmHg 74%
    14:00 +4°C° 0 mm 2 mps 763 mmHg 74%
    15:00 +4°C° 0 mm 2 mps 763 mmHg 75%
    16:00 +3°C° 0 mm 2 mps 764 mmHg 76%
    17:00 +2°C° 0 mm 2 mps 764 mmHg 77%
    18:00 0°C° 0 mm 3 mps 765 mmHg 78%
    19:00 0°C° 0 mm 3 mps 766 mmHg 78%
    20:00 -1°C° 0 mm 3 mps 766 mmHg 78%
    21:00 -1°C° 0 mm 2 mps 767 mmHg 77%
    22:00 -1°C° 0 mm 2 mps 767 mmHg 78%
    23:00 -2°C° 0 mm 2 mps 768 mmHg 79%

    21 January, Monday

    Time Temperature Precipitation Wind Pressure Humidity
    00:00 -2°C° 0 mm 2 mps 768 mmHg 80%
    01:00 -2°C° 0 mm 2 mps 768 mmHg 80%
    02:00 -2°C° 0 mm 2 mps 769 mmHg 81%
    03:00 -2°C° 0 mm 3 mps 769 mmHg 82%
    04:00 -2°C° 0 mm 3 mps 769 mmHg 81%
    05:00 -2°C° 0 mm 3 mps 769 mmHg 81%
    06:00 -2°C° 0 mm 3 mps 770 mmHg 81%
    07:00 -2°C° 0 mm 3 mps 770 mmHg 78%
    08:00 -2°C° 0 mm 3 mps 770 mmHg 76%
    09:00 -1°C° 0 mm 3 mps 771 mmHg 74%
    10:00 0°C° 0 mm 3 mps 771 mmHg 70%
    11:00 +1°C° 0 mm 3 mps 770 mmHg 66%
    12:00 +2°C° 0 mm 3 mps 770 mmHg 62%
    13:00 +2°C° 0 mm 3 mps 770 mmHg 62%
    14:00 +3°C° 0 mm 2 mps 770 mmHg 63%
    15:00 +3°C° 0 mm 2 mps 770 mmHg 64%
    16:00 +2°C° 0 mm 2 mps 770 mmHg 65%
    17:00 +1°C° 0 mm 2 mps 770 mmHg 66%
    18:00 -1°C° 0 mm 2 mps 770 mmHg 67%
    19:00 -2°C° 0 mm 2 mps 770 mmHg 66%
    20:00 -2°C° 0 mm 2 mps 770 mmHg 65%
    21:00 -2°C° 0 mm 2 mps 769 mmHg 64%
    22:00 -2°C° 0 mm 2 mps 769 mmHg 65%
    23:00 -2°C° 0 mm 2 mps 769 mmHg 66%
    Show more